Zurück zum Katalog

COSMOS 1579 COOLANT

LostLEO
NORAD 28274·DEBRIS·🇷🇺 Russia

Gestartet Jun 29, 1984 von Baikonur Cosmodrome

Loading…

Nächste Überflüge (nächste 24 Stunden)

TLE

VeraltetSource: Space-Track

Epoche: Jul 6, 2026, 16:37 UTC

1 28274U 84069AK  26187.69263020  .00000260  00000-0  26517-3 0  9994
2 28274  65.0481 169.1826 0050228 332.0146  27.8220 13.93232387201957

Verfolge COSMOS 1579 COOLANT in Echtzeit mit AllMySat

Download on the App Store